DW4465 Weather Reports


time (UTC)temp
C
wind
direction
speed
KPH
gust
KPH
rain 1hr
cm
rain 24hr
cm
rain mn
cm
humidity
%
barometer
mb
20260903034554 21 294 0.0 6.4 0.00 0.00 0.00 68 1014.3
20260903033051 21 323 0.0 6.4 0.00 0.00 0.00 68 1014.2
20260903031546 21 314 1.6 6.4 0.00 0.00 0.00 68 1014.1
20260903030046 21 0 0.0 6.4 0.00 0.00 0.00 67 1014.2
20260903024551 21 0 1.6 6.4 0.00 0.00 0.00 67 1014.1
20260903023049 22 0 0.0 4.8 0.00 0.00 0.00 66 1014.1
20260903021546 22 344 1.6 6.4 0.00 0.00 0.00 65 1014.1
20260903020045 22 288 0.0 6.4 0.00 0.00 0.00 64 1014.0
20260903014553 23 291 1.6 6.4 0.00 0.00 0.00 64 1013.9
20260903013107 23 307 1.6 8.0 0.00 0.00 0.00 64 1013.9
20260903011558 24 298 3.2 8.0 0.00 0.00 0.00 64 1013.9
20260903010056 24 311 3.2 9.7 0.00 0.00 0.00 62 1013.9
20260903004551 25 295 3.2 12.9 0.00 0.00 0.00 59 1013.9
20260903003050 26 290 3.2 12.9 0.00 0.00 0.00 55 1013.8
20260903001546 27 286 4.8 12.9 0.00 0.00 0.00 53 1013.8
20260903000056 27 314 3.2 12.9 0.00 0.00 0.00 48 1013.9
20260902234614 28 333 3.2 12.9 0.00 0.00 0.00 47 1013.8
20260902233048 28 260 3.2 11.3 0.00 0.00 0.00 45 1014.0
20260902231553 28 321 1.6 14.5 0.00 0.00 0.00 47 1014.0
20260902230050 28 227 3.2 9.7 0.00 0.00 0.00 50 1014.0
20260902224605 27 231 3.2 11.3 0.00 0.00 0.00 51 1014.1
20260902223051 27 160 4.8 14.5 0.00 0.00 0.00 51 1014.3
20260902221549 27 156 4.8 19.3 0.00 0.00 0.00 52 1014.5
20260902220050 27 223 4.8 14.5 0.00 0.00 0.00 50 1014.7
20260902214601 27 205 4.8 16.1 0.00 0.00 0.00 50 1014.9
20260902213050 26 194 9.7 17.7 0.00 0.00 0.00 53 1015.1
20260902211547 26 203 8.0 17.7 0.00 0.00 0.00 53 1015.1
20260902210057 27 221 8.0 19.3 0.00 0.00 0.00 54 1015.3
20260902204555 27 157 4.8 14.5 0.00 0.00 0.00 53 1015.4
20260902203049 26 213 4.8 12.9 0.00 0.00 0.00 54 1015.4
20260902201603 26 157 6.4 16.1 0.00 0.00 0.00 52 1015.5
20260902200057 26 221 6.4 14.5 0.00 0.00 0.00 55 1015.6
20260902194544 26 0 3.2 17.7 0.00 0.00 0.00 53 1015.7
20260902193051 26 175 1.6 9.7 0.00 0.00 0.00 53 1015.7
20260902191550 26 208 1.6 12.9 0.00 0.00 0.00 56 1016.0
20260902190058 25 244 4.8 11.3 0.00 0.00 0.00 58 1016.2
20260902184546 25 186 3.2 12.9 0.00 0.00 0.00 60 1016.4
20260902183048 25 209 3.2 11.3 0.00 0.00 0.00 61 1016.4
20260902181549 25 214 4.8 12.9 0.00 0.00 0.00 61 1016.4
20260902180049 25 221 1.6 11.3 0.00 0.00 0.00 62 1016.6
20260902174543 25 293 3.2 11.3 0.00 0.00 0.00 62 1016.6
20260902173050 23 17 3.2 8.0 0.00 0.00 0.00 63 1016.5
20260902171547 23 0 3.2 9.7 0.00 0.00 0.00 65 1016.4
20260902170051 23 167 3.2 9.7 0.00 0.00 0.00 67 1016.4
20260902164548 22 132 1.6 6.4 0.00 0.00 0.00 70 1016.4
20260902163045 22 119 0.0 8.0 0.00 0.00 0.00 73 1016.4
20260902161554 21 196 1.6 8.0 0.00 0.00 0.00 78 1016.3
20260902160050 20 196 1.6 6.4 0.00 0.00 0.00 82 1016.2
20260902154549 20 238 1.6 6.4 0.00 0.00 0.00 84 1016.2
20260902153054 18 170 1.6 6.4 0.00 0.00 0.00 86 1016.2
20260902151553 18 0 0.0 4.8 0.00 0.00 0.00 87 1016.3
20260902150049 17 190 0.0 4.8 0.00 0.00 0.00 87 1016.2
20260902144546 16 0 0.0 0.0 0.00 0.00 0.00 87 1016.2
20260902143057 16 0 0.0 1.6 0.00 0.00 0.00 87 1015.9
20260902141550 15 0 0.0 0.0 0.00 0.00 0.00 86 1015.8
20260902140049 15 0 0.0 0.0 0.00 0.00 0.00 86 1015.7
20260902134547 14 0 0.0 0.0 0.00 0.00 0.00 86 1015.7
20260902133047 15 0 0.0 0.0 0.00 0.00 0.00 85 1015.4
20260902131559 15 0 0.0 0.0 0.00 0.00 0.00 85 1015.5
20260902130047 15 0 0.0 0.0 0.00 0.00 0.00 85 1015.4
20260902124557 15 0 0.0 0.0 0.00 0.00 0.00 85 1015.4
20260902123045 15 0 0.0 0.0 0.00 0.00 0.00 85 1015.5
20260902121550 15 0 0.0 0.0 0.00 0.00 0.00 85 1015.7
20260902120048 16 0 0.0 0.0 0.00 0.00 0.00 85 1015.6
20260902114546 16 0 0.0 0.0 0.00 0.00 0.00 84 1015.6
20260902113059 16 0 0.0 0.0 0.00 0.00 0.00 84 1015.7
20260902111556 16 0 0.0 0.0 0.00 0.00 0.00 84 1015.6
20260902110047 16 0 0.0 0.0 0.00 0.00 0.00 84 1015.6
20260902104546 16 0 0.0 0.0 0.00 0.00 0.00 83 1015.6
20260902103048 16 0 0.0 0.0 0.00 0.00 0.00 83 1015.7
20260902101604 16 0 0.0 0.0 0.00 0.00 0.00 83 1015.7
20260902100049 16 0 0.0 0.0 0.00 0.00 0.00 83 1015.7
20260902094551 16 0 0.0 0.0 0.00 0.00 0.00 82 1015.8
20260902093045 16 0 0.0 0.0 0.00 0.00 0.00 82 1015.7
20260902091551 16 0 0.0 0.0 0.00 0.00 0.00 81 1015.7
20260902090047 16 0 0.0 0.0 0.00 0.00 0.00 81 1015.7
20260902084551 16 0 0.0 0.0 0.00 0.00 0.00 81 1015.8
20260902083046 17 0 0.0 0.0 0.00 0.00 0.00 80 1015.8
20260902081552 17 0 0.0 0.0 0.00 0.00 0.00 80 1015.9
20260902080059 17 0 0.0 0.0 0.00 0.00 0.00 79 1016.0
20260902074546 17 0 0.0 0.0 0.00 0.00 0.00 79 1016.0
20260902073044 17 0 0.0 0.0 0.00 0.00 0.00 79 1015.8
20260902071555 17 0 0.0 0.0 0.00 0.00 0.00 78 1015.6
20260902070051 17 0 0.0 0.0 0.00 0.00 0.00 77 1015.4
20260902064555 17 0 0.0 0.0 0.00 0.00 0.00 77 1015.4
20260902063047 18 0 0.0 0.0 0.00 0.00 0.00 76 1015.4
20260902060050 18 0 0.0 0.0 0.00 0.00 0.00 75 1015.3
20260902054550 18 0 0.0 0.0 0.00 0.00 0.00 75 1015.3
20260902053046 19 0 0.0 0.0 0.00 0.00 0.00 74 1015.3
20260902051556 19 0 0.0 3.2 0.00 0.00 0.00 74 1015.3
20260902050100 20 0 0.0 1.6 0.00 0.00 0.00 74 1015.1
20260902044547 20 0 0.0 3.2 0.00 0.00 0.00 74 1015.1
20260902043056 20 0 0.0 4.8 0.00 0.00 0.00 74 1014.9
20260902041555 20 317 0.0 4.8 0.00 0.00 0.00 73 1014.8
20260902040050 20 0 0.0 4.8 0.00 0.00 0.00 73 1014.5